logo
Search for airport 
image banner adimage banner adimage banner ad
image banner ad

EHKW - K14-Fa-1A (Oil Platform)

Located in , Netherlands

ICAO - , IATA -

Data provided by Airmate  

General information

Coordinates: N53°16'7" E3°37'35"
Elevation is feet MSL.
 
View others Airports in Noord-Holland

Operational data

Special qualification required
Current time UTC:
Current local time:
Weather at : EHKV - K14-Fa-1C (Oil Platform) ( 0 km )
METAR: EHKV 171355Z AUTO 28011KT 250V340 9999 FEW016 16/14 Q1021
View NOTAMs / SUP AIP / TFR affecting this airport [VIEW]
Communications frequencies: [VIEW]

Runways:

Airport contact information

Address: Netherlands

Satellite view of EHKW